Regional Weather Roundup
Issued by NWS Kansas City/Pleasant Hill, MO

Home | Current Version | Previous Version | Text Only | Print | Product List | Glossary On
Versions: 1 2 3 4 5 6 7 8 9 10 11 12 13 14 15 16 17 18 19 20 21 22 23 24 25 26 27
000
ASUS43 KEAX 240110
RWREAX

WEATHER ROUNDUP FOR EASTERN KANSAS AND NORTHWEST MISSOURI
NATIONAL WEATHER SERVICE KANSAS CITY/PLEASANT HILL MO
700 PM CST FRI FEB 23 2018

KSZ040-057-103>105-MOZ028-029-037-043-240200-
...KANSAS CITY METROPOLITAN AREA...

CITY           SKY/WX    TMP DP  RH WIND       PRES   REMARKS
K.C. INTL      CLOUDY    34  29  82 E6        30.23F WCI  29
K.C. DOWNTOWN  CLOUDY    36  29  75 NE7       30.23F WCI  30
LEES SUMMIT    CLOUDY    34  31  88 NE7       30.23F WCI  28
OLATHE - IXD   CLOUDY    34  31  88 NE8       30.22F WCI  27
OLATHE - OJC   CLOUDY    33  30  88 E8        30.22F WCI  26
LAWRENCE       CLOUDY    34  30  85 NE7       30.23F WCI  28

$$

MOZ001>008-011>017-020>025-030>033-038>040-044>046-053-054-240200-
...NORTHERN AND CENTRAL MISSOURI...

CITY           SKY/WX    TMP DP  RH WIND       PRES   REMARKS
ST. JOSEPH     CLOUDY    36  30  79 CALM      30.26S
MOSBY          CLOUDY    34  32  93 CALM      30.25F
WARRENSBURG    CLOUDY    34  32  93 N8        30.24F WCI  27
WHITEMAN AFB   CLOUDY    36  33  89 NE8       30.19F WCI  29
CLINTON        CLOUDY    37  36  93 NE10      30.22F WCI  30
SEDALIA        CLOUDY    37  36  96 NE7       30.25F WCI  32
WARSAW         NOT AVBL
CHILLICOTHE      N/A     36  31  82 CALM      30.28S
KIRKSVILLE     PTCLDY    33  31  92 CALM      30.26R

$$

MOZ041-047>049-056>058-063>065-088>090-097-240200-
...EASTERN AND SOUTHERN MISSOURI...

CITY           SKY/WX    TMP DP  RH WIND       PRES   REMARKS
ST. LOUIS INTL CLOUDY    44  41  89 N5        30.27S
SPIRIT OF STL  CLOUDY    43  40  89 N10       30.25F
COLUMBIA       CLOUDY    37  35  92 NE6       30.26S WCI  32
JEFFERSON CITY CLOUDY    39  36  89 NE6       30.26F WCI  35
ROLLA          CLOUDY    40  40 100 NE9       30.21F FOG     WCI  34
OSAGE BEACH    LGT RAIN  39  38  96 NE7       30.22F FOG     WCI  34
SPRINGFIELD    LGT RAIN  46  45  96 E5        30.13F
BRANSON        LGT RAIN  45  45 100 SE9       30.17F FOG
JOPLIN         HVY RAIN  41  41 100 N8        30.16S FOG
WEST PLAINS    LGT RAIN  47  46  97 E3        30.19F

$$

IAZ060-094-KSZ022-034>040-054-083-096-NEZ052-066-093-240200-
...KANSAS...SOUTHEAST NEBRASKA AND IOWA...

CITY           SKY/WX    TMP DP  RH WIND       PRES   REMARKS
TOPEKA         CLOUDY    34  31  88 E6        30.23F WCI  29
MANHATTAN      CLOUDY    35  29  78 E7        30.21S WCI  29
EMPORIA        CLOUDY    31  29  92 NE7       30.20R WCI  24
CHANUTE        LGT RAIN  37  35  92 NE9       30.17F FOG     WCI  30
WICHITA        CLOUDY    34  32  92 NE13      30.15S WCI  25
OMAHA          CLOUDY    25  21  85 N7        30.29R WCI  17
LINCOLN        MOCLDY    25  21  85 N12       30.26F WCI  14
FALLS CITY     CLOUDY    33  27  78 NE3       30.25R
LAMONI         CLOUDY    31  26  82 N3        30.24R
DES MOINES     CLOUDY    27  22  81 N7        30.28S WCI  19

$$





USA.gov is the U.S. government's official web portal to all federal, state and local government web resources and services.